Погода Дивное

Погода Дивное : погода сейчас, прогноз погоды и архив. Всё, что Вы хотите узнать о погоде Дивное!

Хотите узнать прогноз погоды Дивное? Тогда Вам сюда: Погода Дивное

Поиск расширенной информации на нашем сайте:

Другие новости

Новости СМИ2

Главная страница сайта

Новости сайта

02.10.2013

Напоминаем, что на нашем новом сайте вы можете получить высокодетализированные прогнозы погоды по пунктам России, СНГ и мира (включающие важные для авиации метеовеличины, такие как направление и скорость ветра, видимость, явления погоды, количество и форма облачности, нижняя и верхняя граница облачности), а также ознакомиться с разнообразными материалами по авиационной метеорологии и подборкой полезных ссылок на эту тему.

Сайт Метеоцентр.Азия посвящён разработке технологий оптимизации авиаметеорологического обслуживания, включая проектирование и перспективное создание нескольких автоматизированных авиаметеорологических систем:
- система выпуска высокодетальных прогностических карт явлений погоды для нижнего воздушного пространства по России и ближнему зарубежью;
- система верификации прогнозов TAF (выпускаемых синоптиками официальных АМСГ РФ и ближнего зарубежья) и AUTOTAF (выпускаемых сайтом Метеоцентр.Азия) - выявление ошибок, онлайн-сопоставление с фактической погодой METAR, автоматическое внесение коррективов в прогнозы при резком отклонении фактической погоды от прогноза, подсчёт оправдываемости прогнозов по элементам и в целом;
- система обработки, анализа и отображения авиаметеорологической информации для применения провайдерами метеорологической информации.


Погода Дивное - сегодня

Время (UTC), дата Ветер
(°,м/с) 
Видим.   Явления Облачность Т
(°С)
Тd
(°С)
f(%) Тe
(°С)
Pmin
(гПа)
dP
(гПа)
Po
(мм)
O2
(г/м3)
Тmin Tmax R s Состояние
почвы
06 21.03.17 270 (З) 4000 м  дымка  8/0 средняя 
[Ac trans]
+5.4 +2.1 79 +4  1013.2  0.3  752  297  +3.4         
09 21.03.17 270 (З) 10 км    8/8 600 м 
[Sc]
+6.6 +1.3 69 +5  1013.4  0.2  752  296           
12 21.03.17 290 (З) 5{12}  10 км    4/4 1000 м 
[Cu hum]
+9.2 +0.1 53 +8  1012.5  -0.8  751  293           
15 21.03.17 310 (СЗ) 3{11}  10 км    8/0 средняя 
[Ac trans]
+7.3 +0.8 63 +7  1012.9  0.4  752  295    +9.5       
18 21.03.17 270 (З) 10 км    ясно 
+5.1 +1.2 76 +4  1013.4  0.4  752  297           
21 21.03.17 270 (З) 4{10}  4000 м  дымка  ясно 
+4 +1 81 +2  1013.2  -0.2  752  298           
00 22.03.17 260 (З) 4{11}  4000 м  слаб. дождь  10/0 средняя 
[As op]
+3.1 +1.7 91 +1  1013.4  0.2  752  299           
03 22.03.17 280 (З) 5{11}  2000 м  слаб. дождь  10/0 средняя 
[As op]
+3 +2.2 94 +1  1013.5  0.1  752  299  +2.9         
06 22.03.17 300 (СЗ) 3{11}  2000 м  слаб. дождь{снег}  10/10 600 м 
[Ns]
+2 +1.4 96 +1  1014.8  1.2  753  301  +0.9         
09 22.03.17 320 (СЗ) 4{10}  4000 м  дымка{снег, дождь}  10/10 600 м 
[Sc]
+2.5 +0.1 84 1015.1  0.4  753  301           
12 22.03.17 340 (С) 4000 м  слаб. дождь со снегом  10/10 600 м 
[Ns]
+2 +0.9 92 1016.2  754  301           
15 22.03.17 350 (С) 2000 м  дымка{снег, дождь}  10/0 средняя 
[As trans]
+1.5 +0.2 91 1017.7  1.5  755  303    +3     
18 22.03.17 340 (С) 1000 м  слаб. дождь{снег}  10/0 средняя 
[As op]
+0.3 +0.1 99 1019.3  1.5  756  304           
21 22.03.17 350 (С) 1000 м  дымка{дождь}  10/0 средняя 
[As op]
+0.6 +0 96 +1  1019.8  0.4  757  304           
00 23.03.17 350 (С) 1000 м  дымка{дождь}  10/0 средняя 
[As op]
+0.2 -0.3 96 -1  1020.6  0.8  757  305           
03 23.03.17 350 (С) 1000 м  дымка  10/0 средняя 
[As op]
+0.2 -0.7 94 -1  1021.9  1.3  758  305  +0    0.3     
06 23.03.17 330 (СЗ) 2000 м  дымка  10/0 средняя 
[As op]
+1.1 -0.2 91 1023.2  1.4  759  305           
09 23.03.17 320 (СЗ) 4000 м  дымка  10/0 средняя 
[As trans]
+2.8 -0.2 81 +2  1023.9  0.8  760  303           
12 23.03.17 010 (С) 4000 м  дымка  10/0 средняя 
[Ac As]
+4 +0.5 78 +4  1024.5  0.6  760  302           
15 23.03.17 030 (СВ) 4000 м  дымка  10/0 средняя 
[Ac As]
+4.1 +0.7 78 +5  1025.1  0.7  761  302    +4.3       
18 23.03.17 тихо ()   4000 м  дымка  10/0 средняя 
[Ac As]
+3.5 +1.1 84 +4  1026.6  1.5  762  303           
21 23.03.17 150 (ЮВ) 2000 м  слаб. снег  10/0 средняя 
[As op]
+3.1 +2.3 94 +4  1027  0.3  762  303           
00 24.03.17 тихо ()   2000 м  дымка{снег}  10/0 средняя 
[As trans]
+3 +2.2 94 +3  1026.8  -0.2  762  303           
03 24.03.17 120 (ЮВ) 2000 м  дымка  10/0 средняя 
[As trans]
+2.5 +1.8 95 +3  1027.4  0.6  762  304  +2.5    0.0     
06 24.03.17 150 (ЮВ) 2000 м  дымка  10/0 средняя 
[Ac As]
+4.3 +0.2 75 +3  1028  0.7  763  303  +2.5         
Время (UTC), дата Ветер
(°,м/с) 
Видим.   Явления Облачность Т
(°С)
Тd
(°С)
f(%) Тe
(°С)
Pmin
(гПа)
dP
(гПа)
Po
(мм)
O2
(г/м3)
Тmin Tmax R s Состояние
почвы

Для получения пояснительной информации подведите курсор к названию столбца.

ПОГОДА Дивное - архив

Всё, что Вы хотите узнать о погоде Дивное - удобно и подробно!

Выберите нужную дату (начиная с 1 января 2015* года) и нажмите кнопку "Найти".
Будут отображены архивные сводки погоды по пункту Дивное, начиная с указанной даты.


Отображать данные в формате CSV (для использования в таблицах Excel)


Внимание! Наш архив погоды предназначен исключительно для личного некоммерческого использования в познавательных целях. Если Вам необходимы официальные справки о состоянии погоды (для производственных, юридических, коммерческих и т.п. целей), обращайтесь в органы Росгидромета.

*Примечание: данная дата относится к архиву по метеостанциям СССР (Россия, СНГ, Балтия).
Архив по метеостанциям Зарубежной Европы и Азии (кроме Китая) хранится 10 дней, по другим регионам земного шара (Китай, Африка, Америка, Австралия, Океания) - 1 день.

Дивное - район местоположения метеостанции


Название, широта, долгота, высота метеостанции:
Дивное 45.9°ш. 43.3°д. 87 м над ур. моря [Российская Федерация]

Дополнительная информация

В oтличие oт бoльшинства пoгoдных сайтoв мы публикуем пoдрoбную метеoинфoрмацию в детальнoм прoфессиoнальнoм фoрмате.

Характеристики температуры и влажнoсти вoздуха измеряются на высoте 2 м в тени вдали oт зданий и деревьев.
Скoрoсть ветра измеряется на высoте 10 м (на урoвне рoста челoвека скoрoсть ветра ниже в 1.5-2 раза). Если метеoстанция нахoдится в гoрoде или в лесу, тo скoрoсть ветра занижена на 2-4 м/с пo сравнению с oткрытым местoм. Скoрoсть ветра над акватoриями крупных рек и oзёр, а также на вершинах хoлмoв на 2-5 м/с выше, чем в oбычных услoвиях.
Атмoсфернoе давление в разных тoчках местнoсти мoжет значительнo oтличаться oт давления на метеoстанции, в зависимoсти oт услoвий рельефа (при пoдъёме на 10 м давление пoнижается примернo на 1 мм рт.ст.).